Dallas, TX

1:52 PM CST on February 14, 2016 (GMT -0600)
Redbird

Weather History for KRBD - October, 2013

Change the Weather History Date:

Sunday, October 27, 2013

  Actual Average Record
Temperature  
Mean Temperature 64 °F -  
Max Temperature 69 °F 72 °F 84 °F (2004)
Min Temperature 60 °F 53 °F 37 °F (2012)
Degree Days  
Heating Degree Days 1    
Growing Degree Days 14 (Base 50)    
Moisture  
Dew Point 57 °F    
Average Humidity 80    
Maximum Humidity 93    
Minimum Humidity 65    
Precipitation  
Precipitation 0.00 in - - ()
Sea Level Pressure  
Sea Level Pressure 30.07 in    
Wind  
Wind Speed 4 mph (WNW)    
Max Wind Speed 10 mph    
Max Gust Speed -    
Visibility 10 miles    
Events Rain    
Averages and records for this station are not official NWS values.
T = Trace of Precipitation, MM = Missing Value Source: NWS Daily Summary

Daily Weather History Graph

Daily Weather History Graph

Search for Another Location

Airport or City:

Trip Planner

Search our weather history database for the weather conditions in past years. The results will help you decide how hot, cold, wet, or windy it might be!

Date:

Astronomy

Oct. 27, 2013 Rise Set
Actual Time 7:41 AM CDT 6:41 PM CDT
Civil Twilight 7:15 AM CDT 7:06 PM CDT
Nautical Twilight 6:46 AM CDT 7:35 PM CDT
Astronomical Twilight 6:18 AM CDT 8:03 PM CDT
Moon 1:01 AM CDT (10/27) 2:30 PM CDT (10/27)
Length of Visible Light 11h 50m
Length of Day
10h 59m
Last Quarter, 43% of the Moon is Illuminated
Oct 27
Last Quarter
Nov 3
New
Nov 9
First Quarter
Nov 17
Full
Nov 25
Last Quarter

Hourly Weather History & Observations

Time (CDT) Temp. Dew Point Humidity Pressure Visibility Wind Dir Wind Speed Gust Speed Precip Events Conditions
12:53 AM 60.1 °F 57.9 °F 93% 30.08 in 10.0 mi SE 10.4 mph - N/A   Overcast
1:53 AM 60.1 °F 57.0 °F 90% 30.07 in 10.0 mi SE 5.8 mph - N/A   Overcast
2:53 AM 60.1 °F 57.9 °F 93% 30.06 in 10.0 mi Calm Calm - N/A   Overcast
3:53 AM 60.1 °F 57.0 °F 90% 30.06 in 10.0 mi Calm Calm - N/A   Overcast
4:53 AM 60.1 °F 57.0 °F 90% 30.05 in 10.0 mi Calm Calm - N/A   Overcast
5:53 AM 60.1 °F 57.0 °F 90% 30.06 in 10.0 mi NNW 3.5 mph - N/A   Overcast
6:53 AM 60.1 °F 57.0 °F 90% 30.07 in 10.0 mi WNW 3.5 mph - N/A   Overcast
7:07 AM 60.8 °F 57.2 °F 88% 30.08 in 10.0 mi NW 4.6 mph - N/A   Overcast
7:26 AM 60.8 °F 57.2 °F 88% 30.08 in 10.0 mi WNW 3.5 mph - N/A   Overcast
7:53 AM 60.1 °F 57.9 °F 93% 30.07 in 10.0 mi NNW 3.5 mph - N/A   Overcast
8:53 AM 61.0 °F 57.9 °F 90% 30.10 in 10.0 mi North 3.5 mph - N/A   Overcast
9:43 AM 62.6 °F 57.2 °F 82% 30.13 in 10.0 mi Calm Calm - N/A   Overcast
9:53 AM 62.1 °F 57.9 °F 86% 30.12 in 10.0 mi NNW 4.6 mph - N/A   Overcast
10:16 AM 62.6 °F 57.2 °F 82% 30.13 in 7.0 mi NNW 4.6 mph - 0.00 in Rain Light Rain
10:37 AM 62.6 °F 57.2 °F 82% 30.14 in 9.0 mi NNW 4.6 mph - 0.00 in   Overcast
10:53 AM 62.1 °F 57.9 °F 86% 30.13 in 10.0 mi NNW 4.6 mph - 0.00 in   Overcast
11:19 AM 64.4 °F 57.2 °F 77% 30.13 in 10.0 mi North 3.5 mph - N/A   Overcast
11:39 AM 64.4 °F 57.2 °F 77% 30.13 in 10.0 mi Calm Calm - N/A   Overcast
11:53 AM 64.9 °F 57.9 °F 78% 30.12 in 10.0 mi Calm Calm - N/A   Overcast
12:53 PM 66.9 °F 55.9 °F 68% 30.09 in 10.0 mi Calm Calm - N/A   Overcast
1:53 PM 68.0 °F 55.9 °F 65% 30.06 in 10.0 mi West 4.6 mph - N/A   Overcast
2:53 PM 68.0 °F 55.9 °F 65% 30.04 in 10.0 mi NW 4.6 mph - N/A   Overcast
3:53 PM 68.0 °F 55.9 °F 65% 30.03 in 10.0 mi Calm Calm - N/A   Overcast
4:53 PM 68.0 °F 55.9 °F 65% 30.01 in 10.0 mi Calm Calm - N/A   Overcast
5:53 PM 66.9 °F 57.9 °F 73% 30.01 in 10.0 mi Calm Calm - N/A   Overcast
6:19 PM 66.2 °F 57.2 °F 73% 30.02 in 10.0 mi Calm Calm - N/A   Overcast
6:53 PM 64.9 °F 57.9 °F 78% 30.01 in 10.0 mi Calm Calm - N/A   Overcast
7:53 PM 64.9 °F 57.0 °F 75% 30.02 in 10.0 mi South 4.6 mph - N/A   Overcast
8:02 PM 64.4 °F 57.2 °F 77% 30.03 in 10.0 mi South 3.5 mph - N/A   Overcast
8:53 PM 64.9 °F 57.0 °F 75% 30.02 in 10.0 mi South 3.5 mph - N/A   Overcast
9:53 PM 64.0 °F 57.0 °F 78% 30.03 in 10.0 mi Calm Calm - N/A   Overcast
10:53 PM 63.0 °F 54.0 °F 72% 30.04 in 10.0 mi South 3.5 mph - N/A   Partly Cloudy
11:53 PM 60.1 °F 54.0 °F 80% 30.03 in 10.0 mi South 4.6 mph - N/A   Partly Cloudy